This is the latest recevied weather packets stored in our database for station/object W6TKD-13. If no packets are shown the sender has not sent any weather packets the latest 10 day(s).
| Time | Temp. | Humidity | Pressure | Rain* | Wind** | Luminosity | Snow |
|---|---|---|---|---|---|---|---|
| 1788134702 | 36.11° C | 14% | 1012 hPa | 0 mm | - | - | - |
| 1788134034 | 37.78° C | 13% | 1012 hPa | 0 mm | - | - | - |
| 1788133367 | 40° C | 12% | 1011.9 hPa | 0 mm | - | - | - |
| 1788132700 | 41.11° C | 12% | 1011.9 hPa | 0 mm | - | - | - |
| 1788132033 | 41.67° C | 12% | 1011.9 hPa | 0 mm | - | - | - |
| 1788131366 | 41.67° C | 12% | 1011.9 hPa | 0 mm | - | - | - |
| 1788130699 | 41.67° C | 12% | 1012.1 hPa | 0 mm | - | - | - |
| 1788130032 | 41.67° C | 12% | 1012.1 hPa | 0 mm | - | - | - |
| 1788129364 | 41.67° C | 12% | 1012.1 hPa | 0 mm | - | - | - |
| 1788128698 | 42.78° C | 12% | 1012.3 hPa | 0 mm | - | - | - |
| 1788128032 | 43.89° C | 12% | 1012.3 hPa | 0 mm | - | - | - |
| 1788127365 | 43.89° C | 12% | 1012.4 hPa | 0 mm | - | - | - |
| 1788126698 | 44.44° C | 12% | 1012.6 hPa | 0 mm | - | - | - |
| 1788126030 | 44.44° C | 12% | 1012.7 hPa | 0 mm | - | - | - |
| 1788125364 | 44.44° C | 12% | 1012.8 hPa | 0 mm | - | - | - |
| 1788124696 | 43.33° C | 13% | 1012.8 hPa | 0 mm | - | - | - |
| 1788124048 | 42.78° C | 13% | 1013 hPa | 0 mm | - | - | - |
| 1788123364 | 42.22° C | 13% | 1013.1 hPa | 0 mm | - | - | - |
| 1788122695 | 41.67° C | 14% | 1013 hPa | 0 mm | - | - | - |
| 1788122028 | 40.56° C | 15% | 1013.2 hPa | 0 mm | - | - | - |
| 1788121363 | 38.89° C | 16% | 1013.2 hPa | 0 mm | - | - | - |
| 1788120694 | 36.67° C | 18% | 1013.4 hPa | 0 mm | - | - | - |
| 1788120031 | 33.33° C | 20% | 1013.4 hPa | 0 mm | - | - | - |
| 1788119360 | 31.67° C | 21% | 1013.5 hPa | 0 mm | - | - | - |
| 1788118694 | 31.11° C | 21% | 1013.5 hPa | 0 mm | - | - | - |
* Rain since midnight (hover to see other rain measurements)
** Current wind speed in m/s (hover to see current wind gust speed)